Villahermosa Airport, Mexico

8:21 AM CDT on May 27, 2017 (GMT -0500)
C P A Carlos Rovirosa International

Weather History for MMVA - November, 2012

Change the Weather History Date:

Friday, November 9, 2012

  Actual Average Record
Temperature  
Mean Temperature 71 °F -  
Max Temperature 82 °F 84 °F 89 °F (2005)
Min Temperature 60 °F 71 °F 60 °F (2012)
Cooling Degree Days 6    
Growing Degree Days 21 (Base 50)    
Moisture  
Dew Point 63 °F    
Average Humidity 73    
Maximum Humidity 100    
Minimum Humidity 45    
Precipitation  
Precipitation 0.00 in - - ()
Sea Level Pressure  
Sea Level Pressure 30.04 in    
Wind  
Wind Speed 3 mph ()    
Max Wind Speed 10 mph    
Max Gust Speed -    
Visibility 7.0 miles    
Events      
Averages and records for this station are not official NWS values.
T = Trace of Precipitation, MM = Missing Value Source: Averaged Metar Reports

Daily Weather History Graph

Daily Weather History Graph

Search for Another Location

Airport or City:

Trip Planner

Search our weather history database for the weather conditions in past years. The results will help you decide how hot, cold, wet, or windy it might be!

Date:

Astronomy

Nov. 09, 2012 Rise Set
Actual Time 6:14 AM CST 5:35 PM CST
Civil Twilight 5:51 AM CST 5:58 PM CST
Nautical Twilight 5:25 AM CST 6:24 PM CST
Astronomical Twilight 4:59 AM CST 6:50 PM CST
Moon 1:52 AM CST (11/9) 2:15 PM CST (11/9)
Length of Visible Light 12h 06m
Length of Day
11h 21m
Waning Crescent, 23% of the Moon is Illuminated
Nov 9
Waning Crescent
Nov 13
New
Nov 20
First Quarter
Nov 28
Full
Dec 6
Last Quarter

Hourly Weather History & Observations

Time (CST) Temp. Heat Index Dew Point Humidity Pressure Visibility Wind Dir Wind Speed Gust Speed Precip Events Conditions
4:06 AM 60.8 °F - 59.0 °F 94% 30.06 in 7.0 mi Calm Calm - N/A   Mostly Cloudy
4:50 AM 60.8 °F - 60.8 °F 100% 30.07 in 7.0 mi Calm Calm - N/A   Scattered Clouds
5:47 AM 62.6 °F - 60.8 °F 94% 30.12 in 7.0 mi Calm Calm - N/A   Partly Cloudy
6:41 AM 62.6 °F - 60.8 °F 94% 30.09 in 7.0 mi Calm Calm - N/A   Clear
7:44 AM 68.0 °F - 68.0 °F 100% 30.10 in 7.0 mi Calm Calm - N/A   Clear
8:42 AM 75.2 °F - 66.2 °F 73% 30.15 in 7.0 mi East 6.9 mph - N/A   Partly Cloudy
9:42 AM 77.0 °F - 64.4 °F 65% 30.11 in 7.0 mi East 6.9 mph - N/A   Partly Cloudy
10:40 AM 78.8 °F - 64.4 °F 61% 30.10 in 7.0 mi East 8.1 mph - N/A   Scattered Clouds
11:45 AM 80.6 °F 81.8 °F 62.6 °F 54% 30.12 in 7.0 mi ENE 8.1 mph - N/A   Scattered Clouds
12:44 PM 80.6 °F 81.5 °F 60.8 °F 51% 30.03 in 7.0 mi NNE 6.9 mph - N/A   Scattered Clouds
1:42 PM 82.4 °F 82.5 °F 59.0 °F 45% 30.00 in 7.0 mi ENE 8.1 mph - N/A   Scattered Clouds
2:40 PM 82.4 °F 82.5 °F 59.0 °F 45% 30.01 in 7.0 mi ENE 10.4 mph - N/A   Scattered Clouds
3:41 PM 82.4 °F 82.5 °F 59.0 °F 45% 29.93 in 7.0 mi ENE 9.2 mph - N/A   Scattered Clouds
4:41 PM 80.6 °F 81.8 °F 62.6 °F 54% 29.93 in 7.0 mi ENE 6.9 mph - N/A   Partly Cloudy
5:40 PM 77.0 °F - 62.6 °F 61% 29.99 in 7.0 mi NE 4.6 mph - N/A   Partly Cloudy
6:40 PM 71.6 °F - 64.4 °F 78% 29.96 in 7.0 mi NE 3.5 mph - N/A   Clear
7:40 PM 71.6 °F - 64.4 °F 78% 29.98 in 7.0 mi NE 6.9 mph - N/A   Clear
8:40 PM 71.6 °F - 64.4 °F 78% 30.04 in 7.0 mi ENE 4.6 mph - N/A   Clear
9:40 PM 69.8 °F - 64.4 °F 83% 30.01 in 7.0 mi NE 6.9 mph - N/A   Clear
10:40 PM 69.8 °F - 66.2 °F 88% 30.01 in 7.0 mi NE 4.6 mph - N/A   Clear
11:40 PM 69.8 °F - 66.2 °F 88% 30.04 in 7.0 mi ENE 5.8 mph - N/A   Clear